Location: Girdwood
(60.9430°N, 149.1660°W)
Time: 07:31:59
(UTC-09:00)

Iridium 86 - Visible Passes

Search period start: 22 November 2014 00:00
Search period end: 02 December 2014 00:00
Orbit: 776 x 779 km, 86.4° (Epoch: 21 November)

Date Brightness Start Highest point End Pass type
(mag) Time Alt. Az. Time Alt. Az. Time Alt. Az.
22 Nov 7.3 08:20:47 10° N 08:25:18 29° ENE 08:29:49 10° SE visible
23 Nov 7.8 07:47:29 10° N 07:51:22 21° ENE 07:55:14 10° ESE visible
24 Nov 8.0 07:14:23 10° NNE 07:17:19 15° NE 07:20:15 10° E visible
25 Nov 8.3 06:41:57 10° NNE 06:43:09 11° NE 06:44:21 10° ENE visible
25 Nov 7.0 08:20:47 10° N 08:25:36 35° ENE 08:30:23 10° SE visible
26 Nov 7.5 07:47:25 10° N 07:51:43 25° ENE 07:56:00 10° ESE visible
27 Nov 8.0 07:14:10 10° NNE 07:17:44 18° NE 07:21:17 10° E visible
28 Nov 8.1 06:41:13 10° NNE 06:43:38 13° NE 06:46:03 10° ENE visible
28 Nov 6.7 08:20:49 10° N 08:25:50 44° ENE 08:30:49 10° SE visible
29 Nov 7.3 07:47:23 10° N 07:52:01 31° ENE 07:56:38 10° SE visible
30 Nov 7.7 07:14:03 10° N 07:18:06 22° ENE 07:22:07 10° ESE visible
01 Dec 8.1 06:40:53 10° NNE 06:44:04 16° NE 06:47:13 10° E visible
01 Dec 6.2 08:20:52 10° N 08:26:02 56° ENE 08:31:09 10° SSE visible
